Weather History for KAOH - November, 2012

Change the Weather History Date:

Wednesday, November 21, 2012

  Actual Average Record
Temperature  
Mean Temperature 48 °F -  
Max Temperature 60 °F - - ()
Min Temperature 35 °F - - ()
Degree Days  
Heating Degree Days 18    
Moisture  
Dew Point 38 °F    
Average Humidity 78    
Maximum Humidity 93    
Minimum Humidity 46    
Precipitation  
Precipitation 0.00 in - - ()
Sea Level Pressure  
Sea Level Pressure 30.20 in    
Wind  
Wind Speed 1 mph (SSW)    
Max Wind Speed 7 mph    
Max Gust Speed -    
Visibility 5 miles    
Events      
T = Trace of Precipitation, MM = Missing Value Source: NWS Daily Summary

Daily Weather History Graph

Daily Weather History Graph

Search for Another Location

Airport or City:

Trip Planner

Search our weather history database for the weather conditions in past years. The results will help you decide how hot, cold, wet, or windy it might be!

Date:

Astronomy

Nov. 21, 2012 Rise Set
Actual Time 7:30 AM EST 5:13 PM EST
Civil Twilight 7:00 AM EST 5:43 PM EST
Nautical Twilight 6:27 AM EST 6:16 PM EST
Astronomical Twilight 5:54 AM EST 6:49 PM EST
Moon 1:31 PM EST (11/21) 12:46 AM EST (11/21)
Length of Visible Light 10h 42m
Length of Day
9h 43m
First Quarter, 61% of the Moon is Illuminated
Nov 21
First Quarter
Nov 28
Full
Dec 6
Last Quarter
Dec 13
New
Dec 20
First Quarter

Hourly Weather History & Observations

Time (EST) Temp. Windchill Dew Point Humidity Pressure Visibility Wind Dir Wind Speed Gust Speed Precip Events Conditions
12:53 AM 46.9 °F - 42.1 °F 83% 30.14 in 6.0 mi Calm Calm - N/A   Haze
1:53 AM 44.1 °F - 39.0 °F 82% 30.14 in 5.0 mi Calm Calm - N/A   Haze
2:53 AM 41.0 °F - 37.9 °F 89% 30.16 in 4.0 mi Calm Calm - N/A   Clear
3:18 AM 41.0 °F - 37.4 °F 87% 30.16 in 2.0 mi Calm Calm - N/A   Clear
3:28 AM 41.0 °F - 37.4 °F 87% 30.16 in 1.5 mi Calm Calm - N/A   Clear
3:34 AM 39.2 °F - 37.4 °F 93% 30.16 in 3.0 mi Calm Calm - N/A   Clear
3:53 AM 39.9 °F - 37.9 °F 93% 30.17 in 3.0 mi Calm Calm - N/A   Clear
4:07 AM 37.4 °F - 35.6 °F 93% 30.17 in 2.5 mi Calm Calm - N/A   Clear
4:20 AM 39.2 °F - 35.6 °F 87% 30.17 in 4.0 mi Calm Calm - N/A   Haze
4:44 AM 39.2 °F - 35.6 °F 87% 30.17 in 2.5 mi Calm Calm - N/A   Clear
4:53 AM 39.9 °F - 36.0 °F 86% 30.19 in 2.5 mi Calm Calm - N/A   Clear
5:07 AM 39.2 °F - 35.6 °F 87% 30.18 in 1.5 mi Calm Calm - N/A   Clear
5:42 AM 37.4 °F - 35.6 °F 93% 30.18 in 3.0 mi Calm Calm - N/A   Clear
5:53 AM 37.9 °F - 35.1 °F 89% 30.20 in 3.0 mi Calm Calm - N/A   Clear
6:22 AM 35.6 °F - 33.8 °F 93% 30.19 in 2.5 mi Calm Calm - N/A   Clear
6:53 AM 39.9 °F - 37.0 °F 89% 30.21 in 3.0 mi Calm Calm - N/A   Clear
7:07 AM 39.2 °F - 35.6 °F 87% 30.20 in 2.5 mi Calm Calm - N/A   Clear
7:26 AM 37.4 °F - 35.6 °F 93% 30.21 in 1.8 mi Calm Calm - N/A   Mostly Cloudy
7:53 AM 37.0 °F - 34.0 °F 89% 30.23 in 1.5 mi Calm Calm - N/A   Scattered Clouds
8:53 AM 43.0 °F 39.5 °F 39.0 °F 86% 30.23 in 1.8 mi SSE 5.8 mph - N/A   Clear
9:00 AM 44.6 °F 43.1 °F 39.2 °F 81% 30.23 in 2.0 mi SSE 3.5 mph - N/A   Clear
9:17 AM 46.4 °F 45.2 °F 41.0 °F 81% 30.22 in 3.0 mi SSE 3.5 mph - N/A   Haze
9:53 AM 52.0 °F - 41.0 °F 66% 30.24 in 6.0 mi SE 3.5 mph - N/A   Haze
10:53 AM 55.0 °F - 41.0 °F 59% 30.24 in 7.0 mi South 3.5 mph - N/A   Clear
11:53 AM 57.9 °F - 39.0 °F 49% 30.24 in 10.0 mi Calm Calm - N/A   Clear
12:53 PM 59.0 °F - 39.9 °F 49% 30.22 in 9.0 mi WSW 3.5 mph - N/A   Clear
1:53 PM 59.0 °F - 39.0 °F 48% 30.22 in 9.0 mi WSW 3.5 mph - N/A   Clear
2:53 PM 60.1 °F - 39.0 °F 46% 30.20 in 10.0 mi WSW 5.8 mph - N/A   Clear
3:53 PM 59.0 °F - 39.9 °F 49% 30.20 in 9.0 mi West 6.9 mph - N/A   Clear
4:53 PM 55.0 °F - 39.9 °F 57% 30.20 in 7.0 mi SW 4.6 mph - N/A   Clear
5:53 PM 54.0 °F - 39.0 °F 57% 30.20 in 8.0 mi SW 3.5 mph - N/A   Clear
6:53 PM 48.0 °F - 37.9 °F 68% 30.20 in 7.0 mi South 4.6 mph - N/A   Clear
7:53 PM 46.0 °F 44.8 °F 37.9 °F 73% 30.22 in 6.0 mi South 3.5 mph - N/A   Haze
8:53 PM 44.1 °F 40.1 °F 37.0 °F 76% 30.21 in 4.0 mi South 6.9 mph - N/A   Haze
9:53 PM 43.0 °F 38.8 °F 37.0 °F 80% 30.20 in 5.0 mi South 6.9 mph - N/A   Haze
10:53 PM 43.0 °F 38.8 °F 36.0 °F 76% 30.20 in 5.0 mi South 6.9 mph - N/A   Haze
11:53 PM 41.0 °F 38.0 °F 36.0 °F 82% 30.20 in 5.0 mi South 4.6 mph - N/A   Haze